| time (UTC) | temp F | wind direction | speed MPH | gust MPH | rain 1hr in | rain 24hr in | rain mn in | humidity % | barometer mb |
| 20260504050450 | 47 | 115 | 1.0 | 2.0 | 0.00 | 0.00 | 0.00 | 78 | 1017.6 |
| 20260504045947 | 47 | 201 | 1.0 | 3.0 | 0.00 | 0.00 | 0.00 | 83 | 1017.5 |
| 20260504045443 | 45 | 150 | 0.0 | 0.0 | 0.00 | 0.00 | 0.00 | 89 | 1017.5 |
| 20260504044939 | 44 | 149 | 0.0 | 0.0 | 0.00 | 0.00 | 0.00 | 92 | 1017.4 |
| 20260504044437 | 44 | 149 | 0.0 | 0.0 | 0.00 | 0.00 | 0.00 | 91 | 1017.3 |
| 20260504043934 | 44 | 149 | 0.0 | 0.0 | 0.00 | 0.00 | 0.00 | 92 | 1017.1 |
| 20260504043431 | 44 | 138 | 1.0 | 2.0 | 0.00 | 0.00 | 0.00 | 90 | 1017.3 |
| 20260504042929 | 44 | 138 | 0.0 | 0.0 | 0.00 | 0.00 | 0.00 | 92 | 1017.4 |
| 20260504042425 | 44 | 138 | 0.0 | 0.0 | 0.00 | 0.00 | 0.00 | 92 | 1017.2 |
| 20260504041921 | 44 | 138 | 0.0 | 0.0 | 0.00 | 0.00 | 0.00 | 92 | 1017.0 |
| 20260504041418 | 44 | 137 | 0.0 | 0.0 | 0.00 | 0.00 | 0.00 | 90 | 1017.2 |
| 20260504040914 | 44 | 137 | 0.0 | 0.0 | 0.00 | 0.00 | 0.00 | 90 | 1017.2 |
| 20260504040412 | 44 | 137 | 0.0 | 0.0 | 0.00 | 0.00 | 0.00 | 90 | 1017.3 |
| 20260504035908 | 43 | 137 | 0.0 | 0.0 | 0.00 | 0.00 | 0.00 | 90 | 1017.4 |
| 20260504035405 | 43 | 137 | 0.0 | 0.0 | 0.00 | 0.00 | 0.00 | 91 | 1017.2 |
| 20260504034901 | 43 | 138 | 0.0 | 0.0 | 0.00 | 0.00 | 0.00 | 91 | 1017.3 |
| 20260504034359 | 43 | 137 | 0.0 | 0.0 | 0.00 | 0.00 | 0.00 | 92 | 1017.2 |
| 20260504033856 | 43 | 131 | 0.0 | 0.0 | 0.00 | 0.00 | 0.00 | 90 | 1017.1 |
| 20260504033354 | 43 | 131 | 1.0 | 1.0 | 0.00 | 0.00 | 0.00 | 91 | 1017.1 |
| 20260504032850 | 43 | 157 | 0.0 | 0.0 | 0.00 | 0.00 | 0.00 | 91 | 1017.3 |
| 20260504032347 | 43 | 158 | 0.0 | 1.0 | 0.00 | 0.00 | 0.00 | 91 | 1017.2 |
| 20260504031844 | 43 | 163 | 0.0 | 0.0 | 0.00 | 0.00 | 0.00 | 90 | 1017.2 |
| 20260504031341 | 43 | 165 | 0.0 | 1.0 | 0.00 | 0.00 | 0.00 | 90 | 1017.3 |
| 20260504030837 | 43 | 179 | 0.0 | 0.0 | 0.00 | 0.00 | 0.00 | 89 | 1017.2 |
| 20260504030335 | 44 | 179 | 0.0 | 0.0 | 0.00 | 0.00 | 0.00 | 88 | 1017.3 |
| 20260504025831 | 43 | 179 | 0.0 | 0.0 | 0.00 | 0.00 | 0.00 | 90 | 1017.3 |
| 20260504025328 | 44 | 179 | 0.0 | 0.0 | 0.00 | 0.00 | 0.00 | 90 | 1017.3 |
| 20260504024825 | 44 | 179 | 0.0 | 0.0 | 0.00 | 0.00 | 0.00 | 89 | 1017.4 |
| 20260504024321 | 44 | 179 | 0.0 | 0.0 | 0.00 | 0.00 | 0.00 | 88 | 1017.4 |
| 20260504023818 | 44 | 179 | 0.0 | 0.0 | 0.00 | 0.00 | 0.00 | 88 | 1017.2 |
| 20260504023315 | 45 | 179 | 0.0 | 0.0 | 0.00 | 0.00 | 0.00 | 86 | 1017.2 |
| 20260504022810 | 45 | 179 | 0.0 | 0.0 | 0.00 | 0.00 | 0.00 | 86 | 1017.2 |
| 20260504022308 | 46 | 179 | 0.0 | 0.0 | 0.00 | 0.00 | 0.00 | 88 | 1017.1 |
| 20260504021804 | 46 | 179 | 1.0 | 2.0 | 0.00 | 0.00 | 0.00 | 85 | 1016.9 |
| 20260504021302 | 47 | 180 | 0.0 | 0.0 | 0.00 | 0.00 | 0.00 | 85 | 1017.0 |
| 20260504020758 | 47 | 180 | 0.0 | 0.0 | 0.00 | 0.00 | 0.00 | 84 | 1017.0 |
| 20260504020255 | 48 | 180 | 0.0 | 0.0 | 0.00 | 0.00 | 0.00 | 79 | 1016.9 |
| 20260504015751 | 48 | 180 | 0.0 | 0.0 | 0.00 | 0.00 | 0.00 | 78 | 1016.9 |
| 20260504015248 | 49 | 180 | 0.0 | 0.0 | 0.00 | 0.00 | 0.00 | 79 | 1017.0 |
| 20260504014743 | 49 | 180 | 0.0 | 0.0 | 0.00 | 0.00 | 0.00 | 77 | 1016.9 |
| 20260504014240 | 49 | 181 | 0.0 | 0.0 | 0.00 | 0.00 | 0.00 | 78 | 1016.8 |
| 20260504013738 | 49 | 181 | 0.0 | 0.0 | 0.00 | 0.00 | 0.00 | 78 | 1016.8 |
| 20260504013235 | 50 | 181 | 0.0 | 0.0 | 0.00 | 0.00 | 0.00 | 77 | 1017.0 |
| 20260504012731 | 50 | 181 | 0.0 | 0.0 | 0.00 | 0.00 | 0.00 | 78 | 1017.2 |
| 20260504012229 | 50 | 180 | 0.0 | 0.0 | 0.00 | 0.00 | 0.00 | 78 | 1017.2 |
| 20260504011726 | 50 | 180 | 0.0 | 0.0 | 0.00 | 0.00 | 0.00 | 74 | 1017.4 |
| 20260504011223 | 50 | 180 | 0.0 | 0.0 | 0.00 | 0.00 | 0.00 | 76 | 1017.4 |
| 20260504010719 | 51 | 180 | 0.0 | 0.0 | 0.00 | 0.00 | 0.00 | 76 | 1017.2 |
| 20260504010215 | 51 | 181 | 0.0 | 0.0 | 0.00 | 0.00 | 0.00 | 76 | 1017.2 |
| 20260504005711 | 51 | 181 | 0.0 | 0.0 | 0.00 | 0.00 | 0.00 | 77 | 1017.1 |
| 20260504005209 | 52 | 181 | 0.0 | 0.0 | 0.00 | 0.00 | 0.00 | 74 | 1017.0 |
| 20260504004706 | 52 | 181 | 0.0 | 0.0 | 0.00 | 0.00 | 0.00 | 74 | 1017.0 |
| 20260504004203 | 52 | 181 | 0.0 | 0.0 | 0.00 | 0.00 | 0.00 | 71 | 1017.0 |
| 20260504003700 | 53 | 181 | 0.0 | 0.0 | 0.00 | 0.00 | 0.00 | 70 | 1016.9 |
| 20260504003156 | 53 | 181 | 0.0 | 0.0 | 0.00 | 0.00 | 0.00 | 68 | 1017.0 |
| 20260504002653 | 53 | 181 | 0.0 | 0.0 | 0.00 | 0.00 | 0.00 | 65 | 1016.9 |
| 20260504002150 | 53 | 181 | 0.0 | 0.0 | 0.00 | 0.00 | 0.00 | 67 | 1016.9 |
| 20260504001648 | 54 | 181 | 0.0 | 0.0 | 0.00 | 0.00 | 0.00 | 65 | 1016.9 |
| 20260504001144 | 54 | 181 | 0.0 | 0.0 | 0.00 | 0.00 | 0.00 | 57 | 1016.9 |
| 20260504000641 | 55 | 181 | 0.0 | 0.0 | 0.00 | 0.00 | 0.00 | 58 | 1017.0 |
| 20260504000139 | 55 | 181 | 0.0 | 0.0 | 0.00 | 0.00 | 0.00 | 59 | 1016.6 |
| 20260503235637 | 56 | 181 | 0.0 | 0.0 | 0.00 | 0.00 | 0.00 | 55 | 1016.8 |
| 20260503235133 | 56 | 181 | 0.0 | 0.0 | 0.00 | 0.00 | 0.00 | 50 | 1016.7 |
| 20260503234631 | 58 | 181 | 1.0 | 1.0 | 0.00 | 0.00 | 0.00 | 50 | 1016.6 |
| 20260503234129 | 58 | 171 | 2.0 | 2.0 | 0.00 | 0.00 | 0.00 | 39 | 1016.7 |
| 20260503233626 | 59 | 232 | 1.0 | 2.0 | 0.00 | 0.00 | 0.00 | 39 | 1017.1 |
| 20260503233121 | 59 | 255 | 0.0 | 0.0 | 0.00 | 0.00 | 0.00 | 39 | 1017.0 |
| 20260503232619 | 59 | 294 | 0.0 | 0.0 | 0.00 | 0.00 | 0.00 | 39 | 1016.9 |
| 20260503232116 | 60 | 294 | 0.0 | 0.0 | 0.00 | 0.00 | 0.00 | 44 | 1017.0 |
| 20260503231614 | 60 | 296 | 0.0 | 2.0 | 0.00 | 0.00 | 0.00 | 35 | 1017.3 |
| 20260503231110 | 59 | 354 | 1.0 | 2.0 | 0.00 | 0.00 | 0.00 | 39 | 1017.1 |
| 20260503230607 | 59 | 261 | 1.0 | 1.0 | 0.00 | 0.00 | 0.00 | 37 | 1017.3 |
| 20260503230104 | 59 | 255 | 1.0 | 2.0 | 0.00 | 0.00 | 0.00 | 36 | 1017.3 |
| 20260503225601 | 59 | 287 | 0.0 | 0.0 | 0.00 | 0.00 | 0.00 | 40 | 1017.4 |
| 20260503225056 | 59 | 309 | 2.0 | 2.0 | 0.00 | 0.00 | 0.00 | 37 | 1017.6 |
| 20260503224554 | 59 | 233 | 2.0 | 2.0 | 0.00 | 0.00 | 0.00 | 36 | 1017.5 |
| 20260503224052 | 59 | 318 | 0.0 | 3.0 | 0.00 | 0.00 | 0.00 | 35 | 1017.6 |
| 20260503223550 | 60 | 211 | 4.0 | 8.0 | 0.00 | 0.00 | 0.00 | 34 | 1017.5 |
| 20260503223045 | 60 | 346 | 0.0 | 2.0 | 0.00 | 0.00 | 0.00 | 37 | 1017.4 |
| 20260503222543 | 60 | 250 | 0.0 | 2.0 | 0.00 | 0.00 | 0.00 | 38 | 1017.5 |
| 20260503222041 | 60 | 82 | 0.0 | 2.0 | 0.00 | 0.00 | 0.00 | 34 | 1017.6 |
| 20260503221539 | 60 | 315 | 1.0 | 6.0 | 0.00 | 0.00 | 0.00 | 33 | 1017.5 |
| 20260503221036 | 60 | 3 | 3.0 | 7.0 | 0.00 | 0.00 | 0.00 | 33 | 1017.7 |
| 20260503220532 | 61 | 350 | 6.0 | 11.0 | 0.00 | 0.00 | 0.00 | 32 | 1017.4 |
| 20260503220029 | 62 | 243 | 5.0 | 6.0 | 0.00 | 0.00 | 0.00 | 30 | 1017.6 |
| 20260503215526 | 62 | 324 | 3.0 | 9.0 | 0.00 | 0.00 | 0.00 | 31 | 1017.6 |
| 20260503215023 | 62 | 350 | 1.0 | 14.0 | 0.00 | 0.00 | 0.00 | 33 | 1017.7 |
| 20260503214522 | 63 | 127 | 3.0 | 6.0 | 0.00 | 0.00 | 0.00 | 30 | 1017.6 |
| 20260503214018 | 62 | 85 | 1.0 | 3.0 | 0.00 | 0.00 | 0.00 | 31 | 1017.6 |
| 20260503213516 | 63 | 297 | 7.0 | 9.0 | 0.00 | 0.00 | 0.00 | 31 | 1017.5 |
| 20260503213013 | 62 | 329 | 5.0 | 7.0 | 0.00 | 0.00 | 0.00 | 32 | 1017.5 |
| 20260503212510 | 62 | 294 | 10.0 | 11.0 | 0.00 | 0.00 | 0.00 | 32 | 1017.7 |
| 20260503212007 | 62 | 309 | 5.0 | 8.0 | 0.00 | 0.00 | 0.00 | 33 | 1017.5 |
| 20260503211504 | 62 | 229 | 0.0 | 0.0 | 0.00 | 0.00 | 0.00 | 30 | 1017.6 |
| 20260503211000 | 61 | 317 | 5.0 | 10.0 | 0.00 | 0.00 | 0.00 | 34 | 1017.8 |
| 20260503210457 | 61 | 323 | 7.0 | 14.0 | 0.00 | 0.00 | 0.00 | 34 | 1017.5 |
| 20260503205957 | 61 | 292 | 2.0 | 9.0 | 0.00 | 0.00 | 0.00 | 36 | 1017.6 |
| 20260503205454 | 62 | 291 | 1.0 | 6.0 | 0.00 | 0.00 | 0.00 | 33 | 1017.7 |
| 20260503204951 | 62 | 329 | 5.0 | 7.0 | 0.00 | 0.00 | 0.00 | 32 | 1017.8 |
| 20260503204448 | 62 | 324 | 4.0 | 13.0 | 0.00 | 0.00 | 0.00 | 34 | 1017.7 |
| 20260503203945 | 62 | 201 | 3.0 | 4.0 | 0.00 | 0.00 | 0.00 | 33 | 1018.0 |
| 20260503203443 | 61 | 281 | 5.0 | 7.0 | 0.00 | 0.00 | 0.00 | 33 | 1017.8 |
| 20260503202939 | 62 | 128 | 2.0 | 4.0 | 0.00 | 0.00 | 0.00 | 31 | 1018.0 |
| 20260503202437 | 61 | 107 | 2.0 | 7.0 | 0.00 | 0.00 | 0.00 | 35 | 1018.1 |
| 20260503201936 | 60 | 265 | 3.0 | 10.0 | 0.00 | 0.00 | 0.00 | 34 | 1018.3 |
| 20260503201432 | 61 | 300 | 12.0 | 14.0 | 0.00 | 0.00 | 0.00 | 31 | 1018.2 |
| 20260503200930 | 60 | 347 | 4.0 | 10.0 | 0.00 | 0.00 | 0.00 | 34 | 1018.3 |
| 20260503200426 | 62 | 292 | 10.0 | 14.0 | 0.00 | 0.00 | 0.00 | 31 | 1018.5 |
| 20260503195923 | 60 | 201 | 5.0 | 13.0 | 0.00 | 0.00 | 0.00 | 37 | 1018.6 |
| 20260503195420 | 60 | 173 | 4.0 | 9.0 | 0.00 | 0.00 | 0.00 | 31 | 1018.7 |
| 20260503194916 | 60 | 316 | 4.0 | 8.0 | 0.00 | 0.00 | 0.00 | 33 | 1019.1 |
| 20260503194413 | 60 | 302 | 4.0 | 9.0 | 0.00 | 0.00 | 0.00 | 33 | 1019.1 |
| 20260503193909 | 61 | 351 | 4.0 | 11.0 | 0.00 | 0.00 | 0.00 | 36 | 1019.0 |
| 20260503193404 | 59 | 317 | 4.0 | 7.0 | 0.00 | 0.00 | 0.00 | 36 | 1019.2 |
| 20260503192900 | 59 | 307 | 9.0 | 13.0 | 0.00 | 0.00 | 0.00 | 34 | 1019.1 |
| 20260503192356 | 60 | 252 | 1.0 | 3.0 | 0.00 | 0.00 | 0.00 | 36 | 1019.1 |
| 20260503191853 | 60 | 204 | 5.0 | 11.0 | 0.00 | 0.00 | 0.00 | 33 | 1019.3 |
| 20260503191350 | 58 | 179 | 4.0 | 6.0 | 0.00 | 0.00 | 0.00 | 33 | 1019.3 |
| 20260503190846 | 60 | 224 | 9.0 | 13.0 | 0.00 | 0.00 | 0.00 | 38 | 1019.7 |
| 20260503190344 | 59 | 333 | 9.0 | 10.0 | 0.00 | 0.00 | 0.00 | 33 | 1019.8 |
| 20260503185841 | 60 | 129 | 1.0 | 2.0 | 0.00 | 0.00 | 0.00 | 40 | 1019.9 |
| 20260503185337 | 60 | 313 | 11.0 | 15.0 | 0.00 | 0.00 | 0.00 | 35 | 1019.7 |
| 20260503184836 | 59 | 309 | 3.0 | 6.0 | 0.00 | 0.00 | 0.00 | 37 | 1020.0 |
| 20260503184333 | 59 | 318 | 6.0 | 8.0 | 0.00 | 0.00 | 0.00 | 37 | 1020.0 |
| 20260503183828 | 58 | 61 | 4.0 | 6.0 | 0.00 | 0.00 | 0.00 | 35 | 1020.1 |
| 20260503183326 | 58 | 66 | 6.0 | 8.0 | 0.00 | 0.00 | 0.00 | 35 | 1020.1 |
| 20260503182823 | 57 | 302 | 4.0 | 13.0 | 0.00 | 0.00 | 0.00 | 38 | 1020.0 |
| 20260503182322 | 58 | 332 | 8.0 | 13.0 | 0.00 | 0.00 | 0.00 | 40 | 1020.2 |
| 20260503181819 | 56 | 86 | 5.0 | 7.0 | 0.00 | 0.00 | 0.00 | 36 | 1020.3 |
| 20260503181316 | 57 | 23 | 4.0 | 4.0 | 0.00 | 0.00 | 0.00 | 36 | 1020.5 |
| 20260503180813 | 59 | 278 | 5.0 | 8.0 | 0.00 | 0.00 | 0.00 | 36 | 1020.5 |
| 20260503180311 | 59 | 278 | 5.0 | 8.0 | 0.00 | 0.00 | 0.00 | 36 | 1020.5 |
| 20260503175806 | 57 | 9 | 2.0 | 8.0 | 0.00 | 0.00 | 0.00 | 42 | 1020.7 |
| 20260503175306 | 57 | 40 | 2.0 | 8.0 | 0.00 | 0.00 | 0.00 | 38 | 1020.6 |
| 20260503174805 | 58 | 309 | 9.0 | 11.0 | 0.00 | 0.00 | 0.00 | 38 | 1020.7 |
| 20260503174304 | 57 | 128 | 2.0 | 4.0 | 0.00 | 0.00 | 0.00 | 35 | 1021.0 |
| 20260503173759 | 56 | 35 | 7.0 | 11.0 | 0.00 | 0.00 | 0.00 | 35 | 1020.8 |
| 20260503173255 | 57 | 177 | 2.0 | 11.0 | 0.00 | 0.00 | 0.00 | 35 | 1020.8 |
| 20260503172752 | 58 | 325 | 4.0 | 4.0 | 0.00 | 0.00 | 0.00 | 38 | 1020.9 |
| 20260503172249 | 56 | 299 | 4.0 | 7.0 | 0.00 | 0.00 | 0.00 | 41 | 1021.0 |
| 20260503171746 | 58 | 15 | 6.0 | 9.0 | 0.00 | 0.00 | 0.00 | 37 | 1021.0 |
| 20260503171243 | 57 | 148 | 1.0 | 6.0 | 0.00 | 0.00 | 0.00 | 42 | 1021.0 |
| 20260503170740 | 56 | 338 | 4.0 | 6.0 | 0.00 | 0.00 | 0.00 | 43 | 1021.5 |
| 20260503170237 | 55 | 23 | 4.0 | 10.0 | 0.00 | 0.00 | 0.00 | 36 | 1021.2 |
| 20260503160159 | 53 | 19 | 7.0 | 11.0 | 0.00 | 0.00 | 0.00 | 40 | 1022.1 |
| 20260503150629 | 51 | 330 | 4.0 | 13.0 | 0.00 | 0.00 | 0.00 | 48 | 1022.5 |
| 20260503150125 | 51 | 322 | 5.0 | 10.0 | 0.00 | 0.00 | 0.00 | 50 | 1022.2 |
| 20260503131019 | 43 | 299 | 7.0 | 8.0 | 0.00 | 0.00 | 0.00 | 75 | 1022.4 |
| 20260503130516 | 44 | 272 | 3.0 | 4.0 | 0.00 | 0.00 | 0.00 | 77 | 1022.4 |
| 20260503110412 | 26 | 44 | 0.0 | 0.0 | 0.00 | 0.00 | 0.00 | 99 | 1021.4 |
| 20260503090257 | 27 | 44 | 0.0 | 0.0 | 0.00 | 0.00 | 0.00 | 99 | 1020.6 |
| 20260503081230 | 28 | 44 | 0.0 | 0.0 | 0.00 | 0.00 | 0.00 | 99 | 1020.1 |
| 20260503080726 | 28 | 44 | 0.0 | 0.0 | 0.00 | 0.00 | 0.00 | 99 | 1020.0 |
| 20260503080223 | 28 | 44 | 0.0 | 0.0 | 0.00 | 0.00 | 0.00 | 99 | 1019.9 |